Details for Ryanair at EPKK




Go Back


Latest METAR
Local Time

EPKK 280100Z 05003KT 030V090 CAVOK 16/12 Q1022

28/05/2018, 03:29:08

Description
Results
Ryanair Logo
Number of Pilots based at EPKK
0 Pilots Based here
Number of Ryanair Flights Departed from EPKK
0 Flights Departed
Number of Ryanair Flights Arrived at EPKK
1 Flights Arrived
Number of Ryanair Schedules Departing from EPKK
115 Schedules
Number of Ryanair Schedules Arriving at EPKK
115 Schedules
Number of Ryanair Schedules Departing from EPKK availible today
30 Schedules Today
Number of Ryanair Schedules Arriving at EPKK availible today
30 Schedules Today
Average Landing Rate at EPKK
-159 fpm
Ryanair Average Landing Rate at EPKK
-184 fpm
Total Fuel Purchased at EPKK by Ryanair
0.00 kgs / 0.00 lbs

Pilots Based at EPKK


Pilot ID
Pilot Name
Pilot Rank
No. of Flights
No. of Flying Hours
There are no pilots assigned to this hub!   Will you be the first?
Content